Location: Lane
(33.5226°N, 79.8788°W)
Time: 06:03:46
(UTC+00:00)

SR - Pass Details

Date: 30 September 2022
Orbit: 577 x 875 km, 66.7° (Epoch: 27 November)

Event Time Altitude Azimuth Distance (km) Brightness Sun altitude
Rises 12:47:44 0° 324° (NW) 3,257 ? 18.5°
Reaches altitude 10° 12:50:24 10° 315° (NW) 2,275 ? 19.1°
Maximum altitude 12:55:02 34° 252° (WSW) 1,152 ? 20.0°
Drops below altitude 10° 12:59:19 10° 187° (S) 2,085 ? 20.8°
Sets 13:01:40 0° 178° (S) 2,947 ? 21.3°
